Starlink 3176

operational
NORAD ID: 51106 Int'l Des: 2022-005 Owner: SPXS Country: US Constellation: starlink
LEOCIRCULAR

Über Starlink 3176

Beschreibung wird geladen...

Live-Position

3D-Globus wird geladen...

Nächste Überflüge

Höhenverlauf

Altitude vs Time

uPlot chart will show altitude changes over time

Zweizeiliger Elementsatz

1 51106U 22005C 25352.28264263 -.00002476 00000-0 -13754-3 0 9996
2 51106 53.2200 294.5733 0001416 85.6316 274.4838 15.08841932216580
Epoch: 18. Dez. 2025 • Age: 10 hours

Aktueller Status

Höhe 546.4 km
Geschwindigkeit 7.59 km/s
Subsatellitenpunkt -21.85°S, 143.83°E
Startdatum 19. Jan. 2022
Alter 3.9 years
Typ internet

Technische Details

Klassifizierung Payload
Masse 297.00 kg
Trockenmasse 275.00 kg
Gesamtmasse 297.00 kg
Länge 0.20 m
Durchmesser 2.80 m
Spannweite 9.00 m
Form Box + pan
Hersteller SPXS
Bus-Typ Starlink
Phasenstatus In Orbit
Besitzer/Staat SPXS/US

Große Konstellationen

Loading constellations...